Location: Bratislava
(48.1500°N, 17.1170°E)
Time: 05:36:48
(UTC+01:00)

N. Korean satellite - Pass Details

Date: 29 January 2019
Orbit: 456 x 510 km, 97.2° (Epoch: 21 February)

Event Time Altitude Azimuth Distance (km) Brightness Sun altitude
Rises 06:49:50 0° 4° (N) 2,609 10.1 -6.1°
Reaches altitude 10° 06:52:03 10° 355° (N) 1,711 9.1 -5.7°
Maximum altitude 06:55:23 33° 291° (WNW) 845 7.3 -5.2°
Drops below altitude 10° 06:58:39 10° 225° (SW) 1,671 9.1 -4.7°
Sets 07:00:48 0° 216° (SW) 2,536 10.1 -4.4°
